Year,Month,Day,Hour,Minute,Value (Times are PST for temperature in C)
2017,06,25,00,00,21.30
2017,06,25,00,01,21.30
2017,06,25,00,02,21.20
2017,06,25,00,03,21.20
2017,06,25,00,04,21.20
2017,06,25,00,05,21.20
2017,06,25,00,06,21.10
2017,06,25,00,07,21.10
2017,06,25,00,08,21.10
2017,06,25,00,09,21.10
2017,06,25,00,10,21.20
2017,06,25,00,11,21.20
2017,06,25,00,12,21.30
2017,06,25,00,13,21.30
2017,06,25,00,14,21.30
2017,06,25,00,15,21.40
2017,06,25,00,16,21.40
2017,06,25,00,17,21.40
2017,06,25,00,18,21.50
2017,06,25,00,19,21.60
2017,06,25,00,20,21.60
2017,06,25,00,21,21.70
2017,06,25,00,22,21.70
2017,06,25,00,23,21.60
2017,06,25,00,24,21.60
2017,06,25,00,25,21.60
2017,06,25,00,26,21.50
2017,06,25,00,27,21.60
2017,06,25,00,28,21.50
2017,06,25,00,29,21.50
2017,06,25,00,30,21.40
2017,06,25,00,31,21.40
2017,06,25,00,32,21.30
2017,06,25,00,33,21.20
2017,06,25,00,34,21.20
2017,06,25,00,35,21.20
2017,06,25,00,36,21.20
2017,06,25,00,37,21.10
2017,06,25,00,38,21.10
2017,06,25,00,39,21.10
2017,06,25,00,40,21.10
2017,06,25,00,41,21.10
2017,06,25,00,42,21.00
2017,06,25,00,43,21.00
2017,06,25,00,44,21.00
2017,06,25,00,45,20.90
2017,06,25,00,46,20.80
2017,06,25,00,47,20.80
2017,06,25,00,48,20.80
2017,06,25,00,49,20.70
2017,06,25,00,50,20.70
2017,06,25,00,51,20.60
2017,06,25,00,52,20.60
2017,06,25,00,53,20.50
2017,06,25,00,54,20.50
2017,06,25,00,55,20.50
2017,06,25,00,56,20.40
2017,06,25,00,57,20.40
2017,06,25,00,58,20.40
2017,06,25,00,59,20.30
2017,06,25,01,00,20.30
2017,06,25,01,01,20.30
2017,06,25,01,02,20.30
2017,06,25,01,03,20.30
2017,06,25,01,04,20.30
2017,06,25,01,05,20.20
2017,06,25,01,06,20.10
2017,06,25,01,07,20.10
2017,06,25,01,08,20.10
2017,06,25,01,09,20.00
2017,06,25,01,10,20.00
2017,06,25,01,11,19.90
2017,06,25,01,12,19.90
2017,06,25,01,13,20.00
2017,06,25,01,14,20.00
2017,06,25,01,15,19.90
2017,06,25,01,16,19.90
2017,06,25,01,17,19.80
2017,06,25,01,18,19.70
2017,06,25,01,19,19.60
2017,06,25,01,20,19.60
2017,06,25,01,21,19.60
2017,06,25,01,22,19.60
2017,06,25,01,23,19.60
2017,06,25,01,24,19.50
2017,06,25,01,25,19.40
2017,06,25,01,26,19.40
2017,06,25,01,27,19.40
2017,06,25,01,28,19.30
2017,06,25,01,29,19.30
2017,06,25,01,30,19.30
2017,06,25,01,31,19.20
2017,06,25,01,32,19.20
2017,06,25,01,33,19.20
2017,06,25,01,34,19.20
2017,06,25,01,35,19.20
2017,06,25,01,36,19.10
2017,06,25,01,37,19.10
2017,06,25,01,38,19.00
2017,06,25,01,39,19.00
2017,06,25,01,40,18.90
2017,06,25,01,41,18.90
2017,06,25,01,42,18.90
2017,06,25,01,43,18.90
2017,06,25,01,44,18.90
2017,06,25,01,45,18.90
2017,06,25,01,46,18.80
2017,06,25,01,47,18.90
2017,06,25,01,48,18.90
2017,06,25,01,49,18.90
2017,06,25,01,50,18.80
2017,06,25,01,51,18.80
2017,06,25,01,52,18.80
2017,06,25,01,53,18.80
2017,06,25,01,54,18.80
2017,06,25,01,55,18.70
2017,06,25,01,56,18.70
2017,06,25,01,57,18.60
2017,06,25,01,58,18.60
2017,06,25,01,59,18.50
2017,06,25,02,00,18.40
2017,06,25,02,01,18.40
2017,06,25,02,02,18.40
2017,06,25,02,03,18.40
2017,06,25,02,04,18.40
2017,06,25,02,05,18.40
2017,06,25,02,06,18.40
2017,06,25,02,07,18.40
2017,06,25,02,08,18.50
2017,06,25,02,09,18.50
2017,06,25,02,10,18.60
2017,06,25,02,11,18.60
2017,06,25,02,12,18.60
2017,06,25,02,13,18.60
2017,06,25,02,14,18.60
2017,06,25,02,15,18.60
2017,06,25,02,16,18.60
2017,06,25,02,17,18.60
2017,06,25,02,18,18.60
2017,06,25,02,19,18.60
2017,06,25,02,20,18.60
2017,06,25,02,21,18.60
2017,06,25,02,22,18.50
2017,06,25,02,23,18.50
2017,06,25,02,24,18.50
2017,06,25,02,25,18.40
2017,06,25,02,26,18.40
2017,06,25,02,27,18.40
2017,06,25,02,28,18.40
2017,06,25,02,29,18.30
2017,06,25,02,30,18.30
2017,06,25,02,31,18.30
2017,06,25,02,32,18.30
2017,06,25,02,33,18.20
2017,06,25,02,34,18.20
2017,06,25,02,35,18.20
2017,06,25,02,36,18.20
2017,06,25,02,37,18.20
2017,06,25,02,38,18.20
2017,06,25,02,39,18.10
2017,06,25,02,40,18.10
2017,06,25,02,41,18.00
2017,06,25,02,42,18.00
2017,06,25,02,43,17.90
2017,06,25,02,44,17.90
2017,06,25,02,45,17.90
2017,06,25,02,46,17.90
2017,06,25,02,47,17.90
2017,06,25,02,48,17.80
2017,06,25,02,49,17.80
2017,06,25,02,50,17.80
2017,06,25,02,51,17.80
2017,06,25,02,52,17.80
2017,06,25,02,53,17.80
2017,06,25,02,54,17.80
2017,06,25,02,55,17.80
2017,06,25,02,56,17.80
2017,06,25,02,57,17.80
2017,06,25,02,58,17.70
2017,06,25,02,59,17.70
2017,06,25,03,00,17.70
2017,06,25,03,01,17.70
2017,06,25,03,02,17.70
2017,06,25,03,03,17.70
2017,06,25,03,04,17.70
2017,06,25,03,05,17.70
2017,06,25,03,06,17.70
2017,06,25,03,07,17.60
2017,06,25,03,08,17.60
2017,06,25,03,09,17.60
2017,06,25,03,10,17.60
2017,06,25,03,11,17.60
2017,06,25,03,12,17.70
2017,06,25,03,13,17.60
2017,06,25,03,14,17.60
2017,06,25,03,15,17.60
2017,06,25,03,16,17.60
2017,06,25,03,17,17.60
2017,06,25,03,18,17.60
2017,06,25,03,19,17.60
2017,06,25,03,20,17.60
2017,06,25,03,21,17.60
2017,06,25,03,22,17.60
2017,06,25,03,23,17.60
2017,06,25,03,24,17.60
2017,06,25,03,25,17.60
2017,06,25,03,26,17.50
2017,06,25,03,27,17.50
2017,06,25,03,28,17.40
2017,06,25,03,29,17.40
2017,06,25,03,30,17.30
2017,06,25,03,31,17.30
2017,06,25,03,32,17.30
2017,06,25,03,33,17.30
2017,06,25,03,34,17.20
2017,06,25,03,35,17.20
2017,06,25,03,36,17.20
2017,06,25,03,37,17.20
2017,06,25,03,38,17.10
2017,06,25,03,39,17.10
2017,06,25,03,40,17.10
2017,06,25,03,41,17.10
2017,06,25,03,42,17.10
2017,06,25,03,43,17.10
2017,06,25,03,44,17.20
2017,06,25,03,45,17.20
2017,06,25,03,46,17.20
2017,06,25,03,47,17.20
2017,06,25,03,48,17.20
2017,06,25,03,49,17.20
2017,06,25,03,50,17.20
2017,06,25,03,51,17.10
2017,06,25,03,52,17.10
2017,06,25,03,53,17.10
2017,06,25,03,54,17.10
2017,06,25,03,55,17.00
2017,06,25,03,56,17.00
2017,06,25,03,57,16.90
2017,06,25,03,58,16.80
2017,06,25,03,59,16.80
2017,06,25,04,00,16.70
2017,06,25,04,01,16.70
2017,06,25,04,02,16.60
2017,06,25,04,03,16.60
2017,06,25,04,04,16.60
2017,06,25,04,05,16.60
2017,06,25,04,06,16.60
2017,06,25,04,07,16.60
2017,06,25,04,08,16.70
2017,06,25,04,09,16.70
2017,06,25,04,10,16.80
2017,06,25,04,11,16.80
2017,06,25,04,12,16.80
2017,06,25,04,13,16.80
2017,06,25,04,14,16.80
2017,06,25,04,15,16.80
2017,06,25,04,16,16.80
2017,06,25,04,17,16.80
2017,06,25,04,18,16.80
2017,06,25,04,19,16.70
2017,06,25,04,20,16.70
2017,06,25,04,21,16.60
2017,06,25,04,22,16.60
2017,06,25,04,23,16.60
2017,06,25,04,24,16.60
2017,06,25,04,25,16.60
2017,06,25,04,26,16.60
2017,06,25,04,27,16.60
2017,06,25,04,28,16.70
2017,06,25,04,29,16.70
2017,06,25,04,30,16.70
2017,06,25,04,31,16.70
2017,06,25,04,32,16.70
2017,06,25,04,33,16.70
2017,06,25,04,34,16.60
2017,06,25,04,35,16.60
2017,06,25,04,36,16.60
2017,06,25,04,37,16.60
2017,06,25,04,38,16.60
2017,06,25,04,39,16.60
2017,06,25,04,40,16.60
2017,06,25,04,41,16.70
2017,06,25,04,42,16.70
2017,06,25,04,43,16.70
2017,06,25,04,44,16.70
2017,06,25,04,45,16.70
2017,06,25,04,46,16.70
2017,06,25,04,47,16.80
2017,06,25,04,48,16.70
2017,06,25,04,49,16.70
2017,06,25,04,50,16.70
2017,06,25,04,51,16.70
2017,06,25,04,52,16.60
2017,06,25,04,53,16.60
2017,06,25,04,54,16.60
2017,06,25,04,55,16.60
2017,06,25,04,56,16.60
2017,06,25,04,57,16.60
2017,06,25,04,58,16.60
2017,06,25,04,59,16.60
2017,06,25,05,00,16.60
2017,06,25,05,01,16.60
2017,06,25,05,02,16.60
2017,06,25,05,03,16.60
2017,06,25,05,04,16.60
2017,06,25,05,05,16.50
2017,06,25,05,06,16.40
2017,06,25,05,07,16.50
2017,06,25,05,08,16.50
2017,06,25,05,09,16.50
2017,06,25,05,10,16.60
2017,06,25,05,11,16.60
2017,06,25,05,12,16.60
2017,06,25,05,13,16.60
2017,06,25,05,14,16.60
2017,06,25,05,15,16.60
2017,06,25,05,16,16.60
2017,06,25,05,17,16.60
2017,06,25,05,18,16.60
2017,06,25,05,19,16.60
2017,06,25,05,20,16.60
2017,06,25,05,21,16.50
2017,06,25,05,22,16.50
2017,06,25,05,23,16.40
2017,06,25,05,24,16.40
2017,06,25,05,25,16.40
2017,06,25,05,26,16.40
2017,06,25,05,27,16.30
2017,06,25,05,28,16.30
2017,06,25,05,29,16.30
2017,06,25,05,30,16.30
2017,06,25,05,31,16.40
2017,06,25,05,32,16.40
2017,06,25,05,33,16.40
2017,06,25,05,34,16.30
2017,06,25,05,35,16.30
2017,06,25,05,36,16.40
2017,06,25,05,37,16.40
2017,06,25,05,38,16.40
2017,06,25,05,39,16.40
2017,06,25,05,40,16.30
2017,06,25,05,41,16.30
2017,06,25,05,42,16.30
2017,06,25,05,43,16.30
2017,06,25,05,44,16.30
2017,06,25,05,45,16.20
2017,06,25,05,46,16.30
2017,06,25,05,47,16.30
2017,06,25,05,48,16.30
2017,06,25,05,49,16.30
2017,06,25,05,50,16.30
2017,06,25,05,51,16.30
2017,06,25,05,52,16.30
2017,06,25,05,53,16.30
2017,06,25,05,54,16.30
2017,06,25,05,55,16.30
2017,06,25,05,56,16.30
2017,06,25,05,57,16.30
2017,06,25,05,58,16.30
2017,06,25,05,59,16.30
2017,06,25,06,00,16.30
2017,06,25,06,01,16.30
2017,06,25,06,02,16.30
2017,06,25,06,03,16.20
2017,06,25,06,04,16.20
2017,06,25,06,05,16.20
2017,06,25,06,06,16.20
2017,06,25,06,07,16.20
2017,06,25,06,08,16.20
2017,06,25,06,09,16.20
2017,06,25,06,10,16.20
2017,06,25,06,11,16.20
2017,06,25,06,12,16.20
2017,06,25,06,13,16.20
2017,06,25,06,14,16.20
2017,06,25,06,15,16.20
2017,06,25,06,16,16.10
2017,06,25,06,17,16.10
2017,06,25,06,18,16.10
2017,06,25,06,19,16.20
2017,06,25,06,20,16.20
2017,06,25,06,21,16.20
2017,06,25,06,22,16.20
2017,06,25,06,23,16.20
2017,06,25,06,24,16.30
2017,06,25,06,25,16.30
2017,06,25,06,26,16.30
2017,06,25,06,27,16.30
2017,06,25,06,28,16.30
2017,06,25,06,29,16.30
2017,06,25,06,30,16.30
2017,06,25,06,31,16.20
2017,06,25,06,32,16.20
2017,06,25,06,33,16.20
2017,06,25,06,34,16.20
2017,06,25,06,35,16.20
2017,06,25,06,36,16.20
2017,06,25,06,37,16.20
2017,06,25,06,38,16.20
2017,06,25,06,39,16.20
2017,06,25,06,40,16.20
2017,06,25,06,41,16.20
2017,06,25,06,42,16.20
2017,06,25,06,43,16.20
2017,06,25,06,44,16.30
2017,06,25,06,45,16.30
2017,06,25,06,46,16.30
2017,06,25,06,47,16.30
2017,06,25,06,48,16.30
2017,06,25,06,49,16.30
2017,06,25,06,50,16.30
2017,06,25,06,51,16.30
2017,06,25,06,52,16.30
2017,06,25,06,53,16.40
2017,06,25,06,54,16.40
2017,06,25,06,55,16.40
2017,06,25,06,56,16.40
2017,06,25,06,57,16.40
2017,06,25,06,58,16.40
2017,06,25,06,59,16.40
2017,06,25,07,00,16.40
2017,06,25,07,01,16.40
2017,06,25,07,02,16.40
2017,06,25,07,03,16.40
2017,06,25,07,04,16.40
2017,06,25,07,05,16.40
2017,06,25,07,06,16.40
2017,06,25,07,07,16.50
2017,06,25,07,08,16.50
2017,06,25,07,09,16.50
2017,06,25,07,10,16.50
2017,06,25,07,11,16.50
2017,06,25,07,12,16.50
2017,06,25,07,13,16.50
2017,06,25,07,14,16.50
2017,06,25,07,15,16.50
2017,06,25,07,16,16.40
2017,06,25,07,17,16.40
2017,06,25,07,18,16.40
2017,06,25,07,19,16.40
2017,06,25,07,20,16.40
2017,06,25,07,21,16.40
2017,06,25,07,22,16.40
2017,06,25,07,23,16.40
2017,06,25,07,24,16.40
2017,06,25,07,25,16.40
2017,06,25,07,26,16.40
2017,06,25,07,27,16.40
2017,06,25,07,28,16.40
2017,06,25,07,29,16.30
2017,06,25,07,30,16.30
2017,06,25,07,31,16.30
2017,06,25,07,32,16.30
2017,06,25,07,33,16.30
2017,06,25,07,34,16.20
2017,06,25,07,35,16.20
2017,06,25,07,36,16.30
2017,06,25,07,37,16.30
2017,06,25,07,38,16.30
2017,06,25,07,39,16.30
2017,06,25,07,40,16.30
2017,06,25,07,41,16.30
2017,06,25,07,42,16.40
2017,06,25,07,43,16.40
2017,06,25,07,44,16.40
2017,06,25,07,45,16.40
2017,06,25,07,46,16.40
2017,06,25,07,47,16.40
2017,06,25,07,48,16.50
2017,06,25,07,49,16.50
2017,06,25,07,50,16.60
2017,06,25,07,51,16.60
2017,06,25,07,52,16.70
2017,06,25,07,53,16.70
2017,06,25,07,54,16.80
2017,06,25,07,55,16.80
2017,06,25,07,56,16.80
2017,06,25,07,57,16.90
2017,06,25,07,58,16.90
2017,06,25,07,59,17.00
2017,06,25,08,00,17.00
2017,06,25,08,01,17.00
2017,06,25,08,02,17.00
2017,06,25,08,03,17.10
2017,06,25,08,04,17.10
2017,06,25,08,05,17.20
2017,06,25,08,06,17.20
2017,06,25,08,07,17.20
2017,06,25,08,08,17.30
2017,06,25,08,09,17.40
2017,06,25,08,10,17.50
2017,06,25,08,11,17.60
2017,06,25,08,12,17.70
2017,06,25,08,13,17.70
2017,06,25,08,14,17.80
2017,06,25,08,15,17.80
2017,06,25,08,16,17.90
2017,06,25,08,17,17.90
2017,06,25,08,18,17.90
2017,06,25,08,19,17.90
2017,06,25,08,20,17.90
2017,06,25,08,21,17.90
2017,06,25,08,22,17.90
2017,06,25,08,23,17.90
2017,06,25,08,24,17.90
2017,06,25,08,25,17.90
2017,06,25,08,26,17.90
2017,06,25,08,27,17.90
2017,06,25,08,28,17.80
2017,06,25,08,29,17.80
2017,06,25,08,30,17.80
2017,06,25,08,31,17.80
2017,06,25,08,32,17.80
2017,06,25,08,33,17.80
2017,06,25,08,34,17.80
2017,06,25,08,35,17.80
2017,06,25,08,36,17.80
2017,06,25,08,37,17.80
2017,06,25,08,38,17.80
2017,06,25,08,39,17.90
2017,06,25,08,40,17.90
2017,06,25,08,41,17.90
2017,06,25,08,42,18.00
2017,06,25,08,43,18.00
2017,06,25,08,44,18.10
2017,06,25,08,45,18.10
2017,06,25,08,46,18.20
2017,06,25,08,47,18.20
2017,06,25,08,48,18.30
2017,06,25,08,49,18.40
2017,06,25,08,50,18.50
2017,06,25,08,51,18.50
2017,06,25,08,52,18.60
2017,06,25,08,53,18.60
2017,06,25,08,54,18.60
2017,06,25,08,55,18.60
2017,06,25,08,56,18.60
2017,06,25,08,57,18.50
2017,06,25,08,58,18.50
2017,06,25,08,59,18.40
2017,06,25,09,00,18.40
2017,06,25,09,01,18.40
2017,06,25,09,02,18.40
2017,06,25,09,03,18.30
2017,06,25,09,04,18.30
2017,06,25,09,05,18.30
2017,06,25,09,06,18.30
2017,06,25,09,07,18.30
2017,06,25,09,08,18.30
2017,06,25,09,09,18.30
2017,06,25,09,10,18.30
2017,06,25,09,11,18.40
2017,06,25,09,12,18.40
2017,06,25,09,13,18.40
2017,06,25,09,14,18.40
2017,06,25,09,15,18.40
2017,06,25,09,16,18.40
2017,06,25,09,17,18.40
2017,06,25,09,18,18.40
2017,06,25,09,19,18.40
2017,06,25,09,20,18.50
2017,06,25,09,21,18.50
2017,06,25,09,22,18.50
2017,06,25,09,23,18.50
2017,06,25,09,24,18.60
2017,06,25,09,25,18.60
2017,06,25,09,26,18.60
2017,06,25,09,27,18.70
2017,06,25,09,28,18.70
2017,06,25,09,29,18.70
2017,06,25,09,30,18.80
2017,06,25,09,31,18.80
2017,06,25,09,32,18.90
2017,06,25,09,33,18.90
2017,06,25,09,34,19.10
2017,06,25,09,35,19.20
2017,06,25,09,36,19.30
2017,06,25,09,37,19.40
2017,06,25,09,38,19.50
2017,06,25,09,39,19.60
2017,06,25,09,40,19.70
2017,06,25,09,41,19.80
2017,06,25,09,42,19.90
2017,06,25,09,43,20.00
2017,06,25,09,44,20.10
2017,06,25,09,45,20.10
2017,06,25,09,46,20.20
2017,06,25,09,47,20.20
2017,06,25,09,48,20.20
2017,06,25,09,49,20.30
2017,06,25,09,50,20.30
2017,06,25,09,51,20.40
2017,06,25,09,52,20.40
2017,06,25,09,53,20.40
2017,06,25,09,54,20.50
2017,06,25,09,55,20.50
2017,06,25,09,56,20.60
2017,06,25,09,57,20.60
2017,06,25,09,58,20.70
2017,06,25,09,59,20.80
2017,06,25,10,00,20.80
2017,06,25,10,01,20.80
2017,06,25,10,02,20.80
2017,06,25,10,03,20.80
2017,06,25,10,04,20.80
2017,06,25,10,05,20.80
2017,06,25,10,06,20.80
2017,06,25,10,07,20.80
2017,06,25,10,08,20.80
2017,06,25,10,09,20.90
2017,06,25,10,10,20.90
2017,06,25,10,11,20.90
2017,06,25,10,12,20.90
2017,06,25,10,13,21.00
2017,06,25,10,14,21.00
2017,06,25,10,15,21.10
2017,06,25,10,16,21.20
2017,06,25,10,17,21.30
2017,06,25,10,18,21.30
2017,06,25,10,19,21.40
2017,06,25,10,20,21.40
2017,06,25,10,21,21.50
2017,06,25,10,22,21.50
2017,06,25,10,23,21.60
2017,06,25,10,24,21.70
2017,06,25,10,25,21.70
2017,06,25,10,26,21.80
2017,06,25,10,27,21.80
2017,06,25,10,28,21.90
2017,06,25,10,29,21.90
2017,06,25,10,30,21.90
2017,06,25,10,31,22.00
2017,06,25,10,32,22.00
2017,06,25,10,33,22.00
2017,06,25,10,34,22.10
2017,06,25,10,35,22.20
2017,06,25,10,36,22.20
2017,06,25,10,37,22.20
2017,06,25,10,38,22.30
2017,06,25,10,39,22.30
2017,06,25,10,40,22.30
2017,06,25,10,41,22.40
2017,06,25,10,42,22.50
2017,06,25,10,43,22.50
2017,06,25,10,44,22.60
2017,06,25,10,45,22.70
2017,06,25,10,46,22.70
2017,06,25,10,47,22.70
2017,06,25,10,48,22.80
2017,06,25,10,49,22.80
2017,06,25,10,50,22.80
2017,06,25,10,51,22.80
2017,06,25,10,52,22.80
2017,06,25,10,53,22.80
2017,06,25,10,54,22.80
2017,06,25,10,55,22.90
2017,06,25,10,56,23.00
2017,06,25,10,57,23.00
2017,06,25,10,58,23.00
2017,06,25,10,59,23.10
2017,06,25,11,00,23.10
2017,06,25,11,01,23.10
2017,06,25,11,02,23.10
2017,06,25,11,03,23.20
2017,06,25,11,04,23.30
2017,06,25,11,05,23.40
2017,06,25,11,06,23.50
2017,06,25,11,07,23.60
2017,06,25,11,08,23.60
2017,06,25,11,09,23.60
2017,06,25,11,10,23.60
2017,06,25,11,11,23.60
2017,06,25,11,12,23.60
2017,06,25,11,13,23.60
2017,06,25,11,14,23.60
2017,06,25,11,15,23.70
2017,06,25,11,16,23.60
2017,06,25,11,17,23.60
2017,06,25,11,18,23.60
2017,06,25,11,19,23.60
2017,06,25,11,20,23.70
2017,06,25,11,21,23.60
2017,06,25,11,22,23.70
2017,06,25,11,23,23.70
2017,06,25,11,24,23.70
2017,06,25,11,25,23.70
2017,06,25,11,26,23.70
2017,06,25,11,27,23.80
2017,06,25,11,28,23.80
2017,06,25,11,29,23.80
2017,06,25,11,30,23.90
2017,06,25,11,31,23.90
2017,06,25,11,32,23.90
2017,06,25,11,33,24.00
2017,06,25,11,34,24.00
2017,06,25,11,35,24.10
2017,06,25,11,36,24.10
2017,06,25,11,37,24.20
2017,06,25,11,38,24.20
2017,06,25,11,39,24.30
2017,06,25,11,40,24.30
2017,06,25,11,41,24.30
2017,06,25,11,42,24.40
2017,06,25,11,43,24.50
2017,06,25,11,44,24.50
2017,06,25,11,45,24.50
2017,06,25,11,46,24.60
2017,06,25,11,47,24.60
2017,06,25,11,48,24.60
2017,06,25,11,49,24.70
2017,06,25,11,50,24.70
2017,06,25,11,51,24.80
2017,06,25,11,52,24.90
2017,06,25,11,53,25.00
2017,06,25,11,54,25.10
2017,06,25,11,55,25.10
2017,06,25,11,56,25.20
2017,06,25,11,57,25.20
2017,06,25,11,58,25.20
2017,06,25,11,59,25.30
2017,06,25,12,00,25.30
2017,06,25,12,01,25.40
2017,06,25,12,02,25.40
2017,06,25,12,03,25.50
2017,06,25,12,04,25.50
2017,06,25,12,05,25.60
2017,06,25,12,06,25.70
2017,06,25,12,07,25.80
2017,06,25,12,08,25.80
2017,06,25,12,09,25.90
2017,06,25,12,10,26.00
2017,06,25,12,11,26.10
2017,06,25,12,12,26.10
2017,06,25,12,13,26.20
2017,06,25,12,14,26.30
2017,06,25,12,15,26.40
2017,06,25,12,16,26.50
2017,06,25,12,17,26.60
2017,06,25,12,18,26.60
2017,06,25,12,19,26.70
2017,06,25,12,20,26.80
2017,06,25,12,21,26.90
2017,06,25,12,22,27.00
2017,06,25,12,23,27.00
2017,06,25,12,24,27.00
2017,06,25,12,25,26.90
2017,06,25,12,26,26.80
2017,06,25,12,27,26.70
2017,06,25,12,28,26.50
2017,06,25,12,29,26.30
2017,06,25,12,30,26.20
2017,06,25,12,31,26.10
2017,06,25,12,32,25.90
2017,06,25,12,33,25.70
2017,06,25,12,34,25.50
2017,06,25,12,35,25.40
2017,06,25,12,36,25.30
2017,06,25,12,37,25.20
2017,06,25,12,38,25.20
2017,06,25,12,39,25.20
2017,06,25,12,40,25.20
2017,06,25,12,41,25.20
2017,06,25,12,42,25.30
2017,06,25,12,43,25.30
2017,06,25,12,44,25.40
2017,06,25,12,45,25.50
2017,06,25,12,46,25.50
2017,06,25,12,47,25.60
2017,06,25,12,48,25.60
2017,06,25,12,49,25.70
2017,06,25,12,50,25.80
2017,06,25,12,51,25.90
2017,06,25,12,52,26.00
2017,06,25,12,53,26.10
2017,06,25,12,54,26.10
2017,06,25,12,55,26.20
2017,06,25,12,56,26.20
2017,06,25,12,57,26.20
2017,06,25,12,58,26.20
2017,06,25,12,59,26.10
2017,06,25,13,00,26.00
2017,06,25,13,01,25.90
2017,06,25,13,02,25.90
2017,06,25,13,03,25.90
2017,06,25,13,04,26.00
2017,06,25,13,05,26.10
2017,06,25,13,06,26.20
2017,06,25,13,07,26.30
2017,06,25,13,08,26.40
2017,06,25,13,09,26.50
2017,06,25,13,10,26.60
2017,06,25,13,11,26.60
2017,06,25,13,12,26.70
2017,06,25,13,13,26.80
2017,06,25,13,14,26.80
2017,06,25,13,15,26.90
2017,06,25,13,16,26.90
2017,06,25,13,17,26.90
2017,06,25,13,18,26.90
2017,06,25,13,19,26.90
2017,06,25,13,20,26.90
2017,06,25,13,21,26.90
2017,06,25,13,22,26.90
2017,06,25,13,23,26.90
2017,06,25,13,24,26.90
2017,06,25,13,25,27.00
2017,06,25,13,26,27.00
2017,06,25,13,27,27.00
2017,06,25,13,28,27.10
2017,06,25,13,29,27.00
2017,06,25,13,30,27.00
2017,06,25,13,31,27.00
2017,06,25,13,32,27.10
2017,06,25,13,33,27.10
2017,06,25,13,34,27.10
2017,06,25,13,35,27.10
2017,06,25,13,36,27.10
2017,06,25,13,37,27.10
2017,06,25,13,38,27.10
2017,06,25,13,39,27.20
2017,06,25,13,40,27.20
2017,06,25,13,41,27.20
2017,06,25,13,42,27.30
2017,06,25,13,43,27.40
2017,06,25,13,44,27.40
2017,06,25,13,45,27.40
2017,06,25,13,46,27.40
2017,06,25,13,47,27.50
2017,06,25,13,48,27.50
2017,06,25,13,49,27.50
2017,06,25,13,50,27.50
2017,06,25,13,51,27.60
2017,06,25,13,52,27.60
2017,06,25,13,53,27.60
2017,06,25,13,54,27.60
2017,06,25,13,55,27.70
2017,06,25,13,56,27.80
2017,06,25,13,57,27.90
2017,06,25,13,58,27.90
2017,06,25,13,59,28.00
2017,06,25,14,00,28.20
2017,06,25,14,01,28.30
2017,06,25,14,02,28.40
2017,06,25,14,03,28.40
2017,06,25,14,04,28.50
2017,06,25,14,05,28.50
2017,06,25,14,06,28.50
2017,06,25,14,07,28.40
2017,06,25,14,08,28.40
2017,06,25,14,09,28.40
2017,06,25,14,10,28.30
2017,06,25,14,11,28.20
2017,06,25,14,12,28.10
2017,06,25,14,13,28.00
2017,06,25,14,14,28.00
2017,06,25,14,15,28.00
2017,06,25,14,16,28.00
2017,06,25,14,17,28.00
2017,06,25,14,18,28.10
2017,06,25,14,19,28.20
2017,06,25,14,20,28.10
2017,06,25,14,21,28.10
2017,06,25,14,22,28.10
2017,06,25,14,23,28.10
2017,06,25,14,24,28.10
2017,06,25,14,25,28.20
2017,06,25,14,26,28.20
2017,06,25,14,27,28.20
2017,06,25,14,28,28.10
2017,06,25,14,29,28.20
2017,06,25,14,30,28.20
2017,06,25,14,31,28.30
2017,06,25,14,32,28.30
2017,06,25,14,33,28.40
2017,06,25,14,34,28.30
2017,06,25,14,35,28.30
2017,06,25,14,36,28.30
2017,06,25,14,37,28.30
2017,06,25,14,38,28.40
2017,06,25,14,39,28.50
2017,06,25,14,40,28.60
2017,06,25,14,41,28.60
2017,06,25,14,42,28.60
2017,06,25,14,43,28.70
2017,06,25,14,44,28.70
2017,06,25,14,45,28.70
2017,06,25,14,46,28.70
2017,06,25,14,47,28.60
2017,06,25,14,48,28.60
2017,06,25,14,49,28.60
2017,06,25,14,50,28.50
2017,06,25,14,51,28.50
2017,06,25,14,52,28.50
2017,06,25,14,53,28.50
2017,06,25,14,54,28.50
2017,06,25,14,55,28.40
2017,06,25,14,56,28.30
2017,06,25,14,57,28.30
2017,06,25,14,58,28.30
2017,06,25,14,59,28.30
2017,06,25,15,00,28.30
2017,06,25,15,01,28.30
2017,06,25,15,02,28.30
2017,06,25,15,03,28.30
2017,06,25,15,04,28.40
2017,06,25,15,05,28.40
2017,06,25,15,06,28.50
2017,06,25,15,07,28.60
2017,06,25,15,08,28.70
2017,06,25,15,09,28.80
2017,06,25,15,10,28.90
2017,06,25,15,11,28.90
2017,06,25,15,12,28.90
2017,06,25,15,13,28.90
2017,06,25,15,14,28.80
2017,06,25,15,15,28.70
2017,06,25,15,16,28.60
2017,06,25,15,17,28.60
2017,06,25,15,18,28.50
2017,06,25,15,19,28.60
2017,06,25,15,20,28.60
2017,06,25,15,21,28.70
2017,06,25,15,22,28.80
2017,06,25,15,23,28.90
2017,06,25,15,24,29.00
2017,06,25,15,25,29.10
2017,06,25,15,26,29.20
2017,06,25,15,27,29.30
2017,06,25,15,28,29.30
2017,06,25,15,29,29.30
2017,06,25,15,30,29.40
2017,06,25,15,31,29.40
2017,06,25,15,32,29.40
2017,06,25,15,33,29.30
2017,06,25,15,34,29.30
2017,06,25,15,35,29.20
2017,06,25,15,36,29.30
2017,06,25,15,37,29.30
2017,06,25,15,38,29.30
2017,06,25,15,39,29.30
2017,06,25,15,40,29.30
2017,06,25,15,41,29.30
2017,06,25,15,42,29.30
2017,06,25,15,43,29.20
2017,06,25,15,44,29.20
2017,06,25,15,45,29.20
2017,06,25,15,46,29.10
2017,06,25,15,47,29.00
2017,06,25,15,48,28.90
2017,06,25,15,49,28.80
2017,06,25,15,50,28.80
2017,06,25,15,51,28.70
2017,06,25,15,52,28.70
2017,06,25,15,53,28.70
2017,06,25,15,54,28.70
2017,06,25,15,55,28.80
2017,06,25,15,56,28.90
2017,06,25,15,57,29.00
2017,06,25,15,58,29.00
2017,06,25,15,59,29.10
2017,06,25,16,00,29.10
2017,06,25,16,01,29.10
2017,06,25,16,02,29.20
2017,06,25,16,03,29.20
2017,06,25,16,04,29.30
2017,06,25,16,05,29.30
2017,06,25,16,06,29.40
2017,06,25,16,07,29.50
2017,06,25,16,08,29.60
2017,06,25,16,09,29.80
2017,06,25,16,10,30.00
2017,06,25,16,11,30.10
2017,06,25,16,12,30.30
2017,06,25,16,13,30.40
2017,06,25,16,14,30.50
2017,06,25,16,15,30.50
2017,06,25,16,16,30.40
2017,06,25,16,17,30.30
2017,06,25,16,18,30.20
2017,06,25,16,19,30.10
2017,06,25,16,20,30.10
2017,06,25,16,21,30.10
2017,06,25,16,22,30.20
2017,06,25,16,23,30.20
2017,06,25,16,24,30.20
2017,06,25,16,25,30.20
2017,06,25,16,26,30.10
2017,06,25,16,27,30.10
2017,06,25,16,28,30.10
2017,06,25,16,29,30.10
2017,06,25,16,30,30.10
2017,06,25,16,31,30.10
2017,06,25,16,32,29.90
2017,06,25,16,33,29.70
2017,06,25,16,34,29.60
2017,06,25,16,35,29.40
2017,06,25,16,36,29.30
2017,06,25,16,37,29.20
2017,06,25,16,38,29.20
2017,06,25,16,39,29.20
2017,06,25,16,40,29.20
2017,06,25,16,41,29.20
2017,06,25,16,42,29.20
2017,06,25,16,43,29.30
2017,06,25,16,44,29.30
2017,06,25,16,45,29.30
2017,06,25,16,46,29.30
2017,06,25,16,47,29.30
2017,06,25,16,48,29.30
2017,06,25,16,49,29.30
2017,06,25,16,50,29.30
2017,06,25,16,51,29.30
2017,06,25,16,52,29.30
2017,06,25,16,53,29.20
2017,06,25,16,54,29.10
2017,06,25,16,55,29.00
2017,06,25,16,56,28.90
2017,06,25,16,57,28.90
2017,06,25,16,58,28.90
2017,06,25,16,59,28.90
2017,06,25,17,00,28.90
2017,06,25,17,01,28.90
2017,06,25,17,02,28.80
2017,06,25,17,03,28.80
2017,06,25,17,04,28.80
2017,06,25,17,05,28.80
2017,06,25,17,06,28.80
2017,06,25,17,07,28.70
2017,06,25,17,08,28.60
2017,06,25,17,09,28.50
2017,06,25,17,10,28.40
2017,06,25,17,11,28.30
2017,06,25,17,12,28.20
2017,06,25,17,13,28.20
2017,06,25,17,14,28.10
2017,06,25,17,15,28.10
2017,06,25,17,16,28.00
2017,06,25,17,17,28.00
2017,06,25,17,18,27.90
2017,06,25,17,19,27.90